Location: Brantley
(31.5822°N, 86.2569°W)
Time: 17:05:38
(UTC+00:00)

Injun/Solrad 3 - Pass Details

Date: 25 February 2026
Orbit: 871 x 985 km, 66.8° (Epoch: 11 March)

Event Time Altitude Azimuth Distance (km) Brightness Sun altitude
Rises 15:37:58 0° 230° (SW) 3,446 10.8 37.4°
Reaches altitude 10° 15:40:41 10° 240° (WSW) 2,513 10.1 37.9°
Maximum altitude 15:45:49 32° 302° (WNW) 1,464 8.8 38.6°
Drops below altitude 10° 15:51:02 10° 5° (N) 2,557 10.0 39.4°
Sets 15:53:51 0° 15° (NNE) 3,516 10.7 39.8°
